Voltar ao catálogo

STARLINK-37736

AtivoComunicaçõesSSO
NORAD 69226·PAYLOAD·🇺🇸 United States

Lançado May 26, 2026 de Vandenberg Space Force Base

Loading…

Próximas Passagens (próximas 24 horas)

TLE

AtualizadoSource: CelesTrak SupGP

Época: Sep 14, 2026, 15:55 UTC

1 69226C 26115R   26257.66368056 -.00059611  00000+0 -18507-2 0  2575
2 69226  97.2832 273.8685 0001672  94.9856  48.6200 15.33465584    19

Acompanhe STARLINK-37736 em tempo real com AllMySat

Download on the App Store